Regional Weather Roundup
Issued by NWS

Home | Current Version | Previous Version | Graphics & Text | Print | Product List | Glossary On
Versions: 1 2 3 4 5 6 7 8 9 10 11 12 13 14 15 16 17 18 19 20 21 22 23 24 25 26 27 28 29 30 31 32 33 34 35 36 37 38 39 40 41 42 43 44 45 46 47 48 49 50
000
ASUS43 KMKX 091800
RWRWI

WISCONSIN REGIONAL WEATHER ROUNDUP
NATIONAL WEATHER SERVICE MILWAUKEE/SULLIVAN WI
1200 PM CST FRI DEC 09 2016

NOTE: "FAIR" INDICATES FEW OR NO CLOUDS BELOW 12,000 FEET WITH NO
SIGNIFICANT WEATHER AND/OR OBSTRUCTIONS TO VISIBILITY.

WIZ001-002-006>008-014>016-023>028-091900-
NORTHWEST WISCONSIN

CITY           SKY/WX    TMP DP  RH WIND       PRES   REMARKS
SUPERIOR ARPT  CLOUDY    15   2  57 W14       30.52F WCI   0
ASHLAND        CLOUDY    16   6  65 W10       30.48F WCI   4
6HR MIN TEMP:  15; 6HR MAX TEMP:  17; 6HR PCP: TRACE;

HAYWARD        CLOUDY    16   5  62 W7        30.46F WCI   6
6HR MIN TEMP:  13; 6HR MAX TEMP:  17; 6HR PCP: TRACE;

SIREN          LGT SNOW  16  10  78 NW3       30.50F
CUMBERLAND     FLURRIES  18  10  73 W8        30.47F WCI   7
RICE LAKE      FLURRIES  17  11  77 W5        30.50F WCI  10
CHETEK         FLURRIES  17  11  75 CALM      30.50S
LADYSMITH      CLOUDY    17  10  71 W3        30.48F
EAU CLAIRE     CLOUDY    18  12  77 W8        30.52S WCI   8
MENOMONIE      FLURRIES  19  13  79 SW6       30.53S WCI  10
NEW RICHMOND   FLURRIES  17  11  78 SW7       30.51F WCI   8
OSCEOLA        LGT SNOW  17  12  80 SW6       30.55F WCI   9
$$

WIZ003>005-009-010-017-018-091900-
NORTH CENTRAL WISCONSIN

CITY           SKY/WX    TMP DP  RH WIND       PRES   REMARKS
MANITOWISH WTR CLOUDY    14   7  75 W10       30.39F WCI   1
ARBOR VITAE    FLURRIES  17   8  70 NW8       30.39F WCI   6
WOODRUFF       FLURRIES  17   8  70 NW8       30.39F WCI   6
RHINELANDER    CLOUDY    17   7  64 N7        30.38F WCI   8
6HR MIN TEMP:   8; 6HR MAX TEMP:  18;

EAGLE RIVER    CLOUDY    17   7  64 W12       30.37S WCI   4
LAND O LAKES   CLOUDY    19  10  69 W9        30.37F WCI   7
PHILLIPS       CLOUDY    15   5  66 W7        30.41F WCI   5
6HR MIN TEMP:   7; 6HR MAX TEMP:  15;

TOMAHAWK       CLOUDY    16   8  70 NW6       30.42F WCI   8
MEDFORD        CLOUDY    15   7  71 NW9       30.43F WCI   3
MERRILL        CLOUDY    18   8  65 NW10      30.44F WCI   6
$$

WIZ029-030-035-036-043>047-091900-
CENTRAL WISCONSIN

CITY           SKY/WX    TMP DP  RH WIND       PRES   REMARKS
WAUSAU         CLOUDY    18   9  68 NW10      30.42F WCI   6
6HR MIN TEMP:  12; 6HR MAX TEMP:  19;

MOSINEE        MOSUNNY   18   9  68 W12       30.44F WCI   5
MARSHFIELD     CLOUDY    17   8  67 NW10      30.45F WCI   5
6HR MIN TEMP:   8; 6HR MAX TEMP:  17;

STEVENS POINT  SUNNY     17   7  64 W10G17    30.46F WCI   5
WAUPACA        SUNNY     25  11  56 NW12      30.47F WCI  14
WAUTOMA        PTSUNNY   21  12  68 W13       30.48F WCI   9
6HR MIN TEMP:  15; 6HR MAX TEMP:  21;

WISC RAPIDS    CLOUDY    19   9  65 NW13      30.49F WCI   6
6HR MIN TEMP:  11; 6HR MAX TEMP:  20;

CAMP DOUGLAS   NOT AVBL
$$

WIZ011>013-019>022-031-037>040-048>050-091900-
NORTHEAST WISCONSIN

CITY           SKY/WX    TMP DP  RH WIND       PRES   REMARKS
ANTIGO         PTSUNNY   18   8  67 NW10      30.39F WCI   6
SHAWANO        SUNNY     25   9  50 NW10G16   30.44F WCI  15
OCONTO         MOSUNNY   24  11  56 NW10      30.43F WCI  13
STURGEON BAY   CLOUDY    25  11  55 W14       30.41F WCI  13
6HR MIN TEMP:  20; 6HR MAX TEMP:  25;

GREEN BAY      MOSUNNY   26  12  55 NW13      30.44F WCI  15
6HR MIN TEMP:  22; 6HR MAX TEMP:  26;

MANITOWOC      NOT AVBL
APPLETON       MOSUNNY   23   9  54 W12       30.43F WCI  12
CLINTONVILLE   SUNNY     23   9  54 NW10G16   30.45F WCI  12
OSHKOSH        MOSUNNY   24  11  57 NW10      30.45F WCI  14
6HR MIN TEMP:  17; 6HR MAX TEMP:  24;

$$

WIZ032>034-041-042-053>061-091900-
SOUTHWEST WISCONSIN

CITY           SKY/WX    TMP DP  RH WIND       PRES   REMARKS
LA CROSSE      PTSUNNY   21  11  65 SW5       30.54F WCI  15
6HR MIN TEMP:  19; 6HR MAX TEMP:  24;

SPARTA         SUNNY     22  10  61 NW6       30.53F WCI  14
VIROQUA        MOSUNNY   19  11  70 NW6       30.49F WCI  11
6HR MIN TEMP:  17; 6HR MAX TEMP:  19;

BOSCOBEL       SUNNY     23  12  62 N5        30.55F WCI  17
6HR MIN TEMP:  19; 6HR MAX TEMP:  24;

PRAIRIE DU CHI SUNNY     21  11  63 NW3       30.57F
PLATTEVILLE    SUNNY     20  14  78 W5        30.54F WCI  13
$$

WIZ056-057-062-063-064-067-068-091900-
SOUTH CENTRAL WISCONSIN

CITY           SKY/WX    TMP DP  RH WIND       PRES   REMARKS
REEDSBURG      MOSUNNY   22  11  64 W8        30.51F WCI  12
BARABOO/DELLS  MOSUNNY   22  11  62 W8        30.49F WCI  12
LONE ROCK      NOT AVBL
MINERAL POINT  PTSUNNY   23  16  74 W9        30.51F WCI  13
MADISON        MOSUNNY   22  10  60 NW8       30.50F WCI  12
6HR MIN TEMP:  19; 6HR MAX TEMP:  22; 6HR PCP: TRACE;

MIDDLETON      SUNNY     24  14  63 NW10      30.52S WCI  14
WATERTOWN      MOSUNNY   23  13  68 W9        30.48F WCI  13
MONROE         PTSUNNY   23  14  68 W8        30.51S WCI  14
JANESVILLE     MOSUNNY   25  12  58 NW9       30.51F WCI  15
$$

WIZ051-052-058>065-066-070>072-091900-
SOUTHEAST WISCONSIN

CITY           SKY/WX    TMP DP  RH WIND       PRES   REMARKS
MILWAUKEE      PTSUNNY   25   9  50 NW14      30.47F WCI  13
6HR MIN TEMP:  22; 6HR MAX TEMP:  27;

WAUKESHA       MOSUNNY   23  12  63 W12       30.47F WCI  12
MILWAUKEE/TIMM PTSUNNY   23   9  54 W15       30.48F WCI  10
RACINE         CLOUDY    25  10  53 W14       30.49F WCI  13
6HR MIN TEMP:  20; 6HR MAX TEMP:  27;

BURLINGTON     MOSUNNY   28  18  64 NW12      30.49F WCI  18
KENOSHA        PTSUNNY   25  11  55 W14       30.48F WCI  13
6HR MIN TEMP:  19; 6HR MAX TEMP:  27;

FOND DU LAC    MOSUNNY   23  10  57 W12       30.46F WCI  12
6HR MIN TEMP:  18; 6HR MAX TEMP:  23;

SHEBOYGAN      MOSUNNY   24   8  50 W14G24    30.44F WCI  12
6HR MIN TEMP:  17; 6HR MAX TEMP:  25;

WEST BEND      PTSUNNY   25  12  58 W16G22    30.45F WCI  12
JUNEAU         SUNNY     21  12  68 W5        30.49F WCI  14
$$

LSZ147-162-091900-
LAKE SUPERIOR

STATION/POSITION TIME  TEMP    WIND        PRES    WAVE
                       AIR SEA DIR/SP/G            HT/PER
                 (UTC) (F)     (DEG/KT/KT) (MB)    (FT/S)
DEVILS ISLAND    1700   17     270/  8/ 10 1033.2F
PORT WING        1730   17     260/ 10/ 24 1032.5F
SAXON HARBOR     1740   18     280/  9/ 13 1031.5F
$$

LMZ867-665-643>646-091900-
LAKE MICHIGAN

STATION/POSITION TIME  TEMP    WIND        PRES    WAVE
                       AIR SEA DIR/SP/G            HT/PER
                 (UTC) (F)     (DEG/KT/KT) (MB)    (FT/S)
CHAMBERS ISLAND  1740   27     300/ 11/ 17 1028.8F
NORTHPORT PIER   1747   26     300/ 12/ 22 1028.8F
SISTER BAY       1750   27     330/ 18/ 20   N/A
ALGOMA LAKESHORE 1721          310/ 14/ 20   N/A
KEWAUNEE LAKESHO 1730   25     320/ 11/ 17 1029.7F
SHEBOYGAN LAKESH 1700   24     300/ 12/ 15 1032.4F
PORT WASHINGTON  1740   25     310/ 13/ 17 1032.5F
MILWAUKEE LAKESH 1730   24     290/ 12/ 15   N/A
KENOSHA   LAKESH 1700   24     280/ 11/ 15 1032.8
$$

TC  - TEMPERATURE IN CELSIUS
VSB - VISIBILITY IN STATUTE MILES
WCI - WIND CHILL INDEX
HX  - HEAT INDEX




USA.gov is the U.S. government's official web portal to all federal, state and local government web resources and services.